Location: Ciserano
(45.5833°N, 9.6000°E)
Time: 17:14:04
(UTC+00:00)

SJ 16-02 - Pass Details

Date: 18 April 2021
Orbit: 605 x 617 km, 75.0° (Epoch: 11 May)

Event Time Altitude Azimuth Distance (km) Brightness Sun altitude
Exits shadow 01:18:24 52° 53° (NE) 773 2.1 -27.7°
Drops below altitude 10° 01:21:55 10° 25° (NNE) 1,986 4.9 -27.3°
Sets 01:24:11 0° 23° (NNE) 2,898 6.0 -27.1°
